Hourly Data Report for March 09, 2021

OTTAWA INTL A
ONTARIO
Current Station Operator: NAVCAN

45°19'00.000" N
75°40'00.000" W
114.90 m
6106001
71628
YOW

Download Data

Hourly Data (March 2021)
Hourly Data Report for March 9, 2021
TIME
LST
Temp Definition
°C
Dew Point Definition
°C
Rel Hum Definition
%
Precip. Amount Definition
mm

Wind Dir Definition
10's deg

Wind Spd Definition
km/h
Visibility Definition
km
Stn Press Definition
kPa
Hmdx Definition


Wind Chill Definition


Weather Definition


00:00 -3.1 -7.6 71   8 6 24.1 100.74   -6 LegendNANA
01:00 -3.5 -7.5 74   11 6 24.1 100.71   -6 Mostly Cloudy
02:00 -6.4 -10.1 75   16 5 24.1 100.71   -9 LegendNANA
03:00 -5.7 -8.9 78   18 5 24.1 100.71   -8 LegendNANA
04:00 -5.8 -9.5 75   23 8 24.1 100.76   -10 Mainly Clear
05:00 -7.3 -9.9 82   27 8 24.1 100.84   -11 LegendNANA
06:00 -9.0 -11.4 83   26 11 24.1 100.91   -14 LegendNANA
07:00 -7.3 -9.7 83   24 3 24.1 100.97   -9 Mainly Clear
08:00 -4.6 -7.8 79   25 13 24.1 101.06   -10 LegendNANA
09:00 -0.7 -4.9 73   26 12 24.1 101.15   -5 LegendNANA
10:00 2.5 -2.8 68   29 16 24.1 101.23     Mainly Clear
11:00 3.7 -2.7 63   29 25 24.1 101.28     LegendNANA
12:00 4.1 -3.1 59   29 18 24.1 101.34     LegendNANA
13:00 4.8 -3.2 56   27 23 24.1 101.37     Mainly Clear
14:00 5.0 -3.4 54   25 19 24.1 101.35     LegendNANA
15:00 5.2 -3.3 54   28 15 24.1 101.39     LegendNANA
16:00 5.4 -3.2 54   28 17 24.1 101.40     Mainly Clear
17:00 5.2 -3.3 54   25 9 24.1 101.43     LegendNANA
18:00 4.9 -4.3 51   22 7 24.1 101.51     LegendNANA
19:00 4.3 -4.0 55   21 6 24.1 101.59     Clear
20:00 0.7 -4.8 67   24 5 24.1 101.63     LegendNANA
21:00 1.3 -5.0 63   19 9 24.1 101.67     LegendNANA
22:00 0.7 -5.1 65   17 14 24.1 101.64     Clear
23:00 -0.2 -4.2 75   17 10 24.1 101.62   -4 LegendNANA

Notes on Data Quality.

Legend

  • E = Estimated
  • M = Missing
  • NA = Not Available*
  • [empty] = Indicates an unobserved value
Date modified: